Wind_Speed
18 19 7 12 16 17 16 16 26 33 26 27 33 34 30 33 35 35 34 34 34 33 35 34 34 36 31 27 25 18 15 21 22 23 24 24 23 24 22 17 17 17 16
17 15 14 13 14 11 10 14 11 19 25 23 25 29 29 30 31 31 31 36 37 41 43 41 37 34 39 28 29 24 23 26 27 20 16 20 25 26 21 21 21 19 19
19 17 16 13 15 13 11 12 14 13 8 17 24 27 30 27 28 28 28 28 33 31 34 39 42 33 31 34 31 26 21 25 22 21 19 24 28 25 23 22 21 20 20
14 15 18 19 17 12 12 15 21 17 17 19 19 26 22 27 25 28 27 27 27 27 28 28 29 31 33 33 29 25 25 23 20 15 22 26 26 22 23 23 22 22 22
12 13 14 15 18 18 18 17 18 20 21 18 25 23 24 26 27 27 27 25 24 24 23 25 26 24 23 21 21 24 26 20 22 21 24 28 28 23 24 23 21 22 23
14 14 12 13 16 21 20 22 21 22 20 22 20 20 25 26 26 25 24 23 23 23 24 22 21 21 22 19 22 21 20 20 19 23 23 19 18 22 20 20 19 19 19
16 18 18 13 14 15 16 21 25 24 24 21 20 18 23 24 24 24 24 24 23 22 23 23 24 24 23 22 23 22 20 21 21 18 16 19 20 18 20 22 21 20 19
19 17 21 22 18 17 20 20 23 27 25 24 20 20 19 24 26 25 24 25 23 20 21 22 21 21 21 22 21 21 21 20 19 17 17 20 22 21 19 18 18 18 18
22 21 23 21 20 21 21 23 23 26 27 19 20 21 22 25 27 27 23 25 22 21 21 19 19 20 20 19 18 17 18 17 17 18 19 16 16 17 17 16 15 17 17
23 22 23 23 23 23 19 20 21 21 27 22 23 24 25 26 27 26 24 24 24 22 21 23 21 20 19 17 15 16 15 14 13 13 13 13 13 13 13 12 13 14 16
26 22 23 23 24 26 25 22 21 21 26 29 26 25 26 24 29 27 24 21 21 23 25 25 23 21 17 14 13 11 11 11 12 12 12 12 12 11 11 11 12 12 13
24 24 23 24 26 26 26 22 20 21 27 31 30 29 28 27 28 25 21 19 18 20 24 24 20 17 15 13 11 10 8 9 10 10 10 11 10 10 9 8 9 11 14
27 23 22 25 25 24 21 18 18 21 28 32 32 32 32 30 26 24 21 18 17 19 18 18 17 15 14 12 10 8 7 7 7 7 7 8 8 9 8 8 12 15 20
26 22 23 23 19 16 15 15 17 21 26 29 32 32 32 32 32 27 22 21 20 19 18 17 16 16 13 13 11 8 5 5 6 5 6 7 7 8 10 12 16 22 27
20 22 19 15 13 11 12 13 15 17 20 24 31 32 30 31 30 27 25 24 22 20 21 21 21 19 18 14 12 8 6 7 6 6 7 8 10 12 13 17 22 27 30
20 16 12 10 9 9 9 11 9 8 12 15 20 23 28 27 28 25 22 20 19 19 21 21 19 17 15 13 11 9 10 9 8 7 8 10 13 16 18 22 26 28 28
16 12 10 8 8 8 8 11 14 10 7 7 14 19 20 22 23 24 22 20 19 19 16 16 15 16 15 13 11 12 12 10 9 10 12 14 18 20 22 24 26 27 28
11 9 7 8 9 10 13 16 17 19 19 17 15 18 17 19 21 22 21 20 20 18 16 16 15 14 14 13 12 12 11 12 13 13 16 18 20 22 25 26 26 27 30
11 9 10 10 11 13 17 19 20 21 22 22 21 18 18 20 20 20 19 17 15 15 16 16 14 13 13 13 12 13 13 13 14 16 18 19 22 25 27 26 27 29 30
12 11 12 13 15 16 18 19 21 22 23 25 25 25 25 24 24 23 19 15 14 13 13 14 14 14 14 11 10 11 13 13 15 18 20 22 25 26 27 28 30 31 31
13 14 14 16 17 18 18 19 18 19 21 22 23 22 21 21 20 16 15 15 13 13 12 13 14 12 10 10 11 11 12 14 17 20 22 24 25 27 28 30 30 31 32
15 17 18 19 19 19 18 18 18 18 18 19 19 19 16 14 13 13 12 12 12 13 13 13 13 11 10 10 10 12 14 16 19 23 24 24 26 27 28 29 29 29 30
17 19 20 20 20 19 20 19 19 19 18 17 17 17 18 17 15 14 13 13 15 14 14 13 12 11 11 11 12 14 17 20 22 23 23 24 25 26 27 28 28 30 30
18 20 21 21 20 20 20 20 20 19 17 17 17 16 16 16 16 16 17 18 17 15 14 12 11 11 9 10 14 17 20 21 22 23 24 25 26 27 27 28 28 28 29
19 20 21 20 20 20 21 20 19 18 18 17 16 17 17 17 17 18 18 16 14 13 13 12 11 9 10 13 16 19 22 22 23 24 25 26 27 27 28 28 28 29 28
19 20 20 20 20 20 19 20 20 20 20 18 17 17 16 16 15 14 13 11 10 10 10 10 10 11 14 17 20 22 23 23 24 25 26 27 27 27 28 28 28 27 27
Wind_Direction
312 345 303 309 337 341 355 335 290 277 262 244 227 217 223 218 215 216 216 218 221 217 211 216 223 231 235 234 239 245 236 234 237 224 227 226 217 217 222 231 249 261 278
321 325 353 322 294 285 313 315 323 288 262 260 246 227 224 223 225 228 227 217 220 225 228 237 235 236 249 220 234 229 234 232 228 227 211 218 213 208 218 232 245 260 274
303 303 302 326 323 326 326 302 282 283 293 276 246 239 230 229 229 227 229 234 239 237 237 237 243 230 221 228 235 225 221 218 211 230 240 209 203 209 220 232 239 254 265
335 299 296 286 292 298 292 279 265 274 282 249 267 241 254 233 233 229 227 230 234 237 235 240 235 243 238 241 222 220 214 222 245 228 214 212 210 212 224 227 234 246 257
323 335 310 278 300 290 285 286 283 278 267 263 244 255 243 241 235 229 228 226 225 229 233 228 234 234 225 224 216 210 215 215 219 209 215 223 227 222 227 232 243 252 257
321 304 328 326 285 284 281 288 290 281 270 255 255 257 251 244 245 240 232 225 225 230 225 226 221 219 220 205 210 211 221 224 230 234 233 233 228 223 233 246 255 266 272
319 308 291 285 300 309 301 285 280 277 265 259 255 255 252 251 252 243 233 229 228 225 218 221 217 218 212 213 215 215 218 236 242 229 220 224 230 240 251 263 265 267 273
301 295 292 288 289 300 305 297 279 265 259 253 249 251 248 251 245 243 236 224 226 221 222 225 222 214 207 212 215 241 243 235 232 233 232 236 247 255 253 252 259 269 277
305 287 290 283 282 284 295 299 287 266 252 252 255 246 244 240 237 237 230 219 217 216 219 214 203 207 212 229 239 238 234 235 235 234 243 242 241 244 246 255 268 276 285
290 288 282 278 280 291 298 289 284 272 246 235 243 236 241 233 231 234 229 217 207 206 199 198 204 217 237 241 236 231 227 227 230 236 234 237 243 247 263 270 273 285 293
282 276 276 280 285 292 293 282 269 262 246 238 236 237 233 235 228 230 216 213 212 201 196 200 211 225 223 221 217 212 216 222 226 230 240 247 254 263 264 274 281 286 295
266 267 269 280 288 287 282 272 257 248 244 237 232 227 222 221 224 214 202 205 204 202 200 211 213 208 201 202 195 197 208 222 230 236 241 246 245 249 263 280 298 306 307
276 270 276 282 283 279 268 259 245 238 237 229 224 222 214 204 197 200 196 194 196 198 202 202 191 191 191 184 182 195 198 232 226 226 227 227 231 250 266 297 312 309 308
269 271 278 280 278 270 266 258 251 241 232 226 221 214 201 188 183 185 188 185 183 180 178 180 185 186 184 185 191 207 220 223 218 215 227 250 271 291 303 306 304 305 306
267 276 280 282 272 257 243 242 244 246 245 237 223 216 195 184 186 185 185 180 176 178 176 176 181 186 188 196 201 216 228 224 228 242 261 276 290 295 299 299 303 304 303
270 273 271 261 243 228 223 215 210 235 233 226 225 203 189 189 182 180 179 177 175 177 179 185 187 191 199 204 215 237 221 226 238 260 276 290 298 300 297 297 297 300 301
264 259 247 229 217 204 190 184 161 160 176 194 193 184 182 177 174 173 175 172 173 180 187 185 191 197 205 217 231 222 224 234 250 274 286 290 290 290 291 295 297 300 303
247 247 234 207 198 186 185 170 158 151 148 151 162 167 166 166 169 173 175 176 180 187 196 195 199 207 219 224 224 228 241 244 259 271 277 283 285 288 292 296 298 301 302
234 227 206 193 188 181 173 161 154 151 149 147 149 153 158 165 171 178 187 196 199 199 200 201 205 208 211 219 235 242 249 250 262 271 278 284 289 291 294 296 298 299 299
218 208 195 187 180 178 173 166 162 160 160 159 158 160 162 169 175 186 195 196 191 187 186 191 199 211 220 231 244 246 249 261 267 275 283 289 291 293 295 295 296 297 299
215 196 188 185 181 179 176 172 170 172 173 171 170 173 179 184 189 190 180 186 191 195 201 206 206 212 226 227 231 246 260 269 277 284 289 293 293 295 295 296 297 299 301
209 197 189 188 183 182 179 175 174 174 173 173 174 178 182 183 185 183 184 186 191 198 199 201 211 220 225 229 243 263 275 282 289 294 295 295 296 297 297 298 299 300 300
205 195 191 189 187 184 179 176 176 176 178 182 188 188 189 193 194 196 195 193 189 191 198 203 209 221 241 248 251 275 287 293 294 295 296 297 297 298 298 300 300 300 301
206 197 193 191 187 185 184 181 181 185 192 198 201 201 204 207 208 201 188 188 193 202 213 224 228 241 248 255 273 286 293 296 297 299 299 298 300 301 301 301 301 302 302
207 201 196 191 187 186 186 189 191 195 199 202 201 198 193 188 186 188 193 196 204 213 223 233 242 252 261 273 285 291 296 299 300 300 300 301 302 303 303 303 304 303 303
204 201 196 191 190 190 193 196 197 198 198 196 193 191 192 195 196 197 201 205 209 212 224 239 253 265 276 284 290 294 297 299 300 300 300 301 302 304 303 303 303 302 303
Height
1409 1402 1397 1398 1396 1404 1399 1392 1398 1400 1399 1399 1404 1406 1410 1415 1422 1428 1434 1440 1444 1450 1457 1461 1466 1472 1477 1480 1490 1492 1493 1499 1500 1502 1504 1508 1512 1516 1518 1519 1519 1518 1518
1406 1401 1400 1404 1404 1395 1387 1396 1401 1399 1400 1404 1407 1408 1409 1413 1417 1422 1427 1433 1438 1443 1448 1452 1460 1463 1468 1474 1479 1483 1488 1493 1494 1497 1500 1504 1507 1510 1512 1514 1515 1514 1514
1402 1401 1402 1399 1401 1395 1387 1394 1400 1398 1395 1401 1404 1407 1408 1409 1414 1417 1422 1427 1431 1435 1440 1445 1451 1456 1461 1466 1471 1476 1481 1486 1488 1492 1494 1498 1501 1504 1507 1509 1511 1511 1511
1397 1397 1397 1398 1397 1395 1394 1394 1396 1393 1393 1396 1400 1403 1406 1406 1410 1415 1417 1422 1428 1432 1437 1442 1447 1451 1456 1461 1465 1470 1477 1479 1482 1487 1492 1495 1497 1499 1502 1505 1506 1506 1506
1398 1394 1394 1395 1395 1395 1391 1389 1389 1390 1393 1392 1394 1400 1399 1404 1406 1409 1414 1419 1422 1427 1433 1438 1443 1448 1453 1458 1462 1467 1472 1475 1479 1484 1487 1489 1491 1493 1497 1500 1502 1503 1502
1397 1396 1393 1390 1389 1390 1388 1386 1386 1388 1388 1389 1390 1392 1397 1401 1405 1408 1413 1416 1420 1424 1431 1436 1439 1445 1450 1455 1461 1466 1470 1472 1475 1478 1481 1482 1485 1489 1491 1492 1494 1496 1498
1394 1393 1392 1390 1389 1387 1385 1384 1383 1385 1387 1386 1387 1386 1395 1399 1401 1405 1410 1414 1417 1421 1426 1432 1434 1439 1446 1453 1458 1462 1466 1468 1470 1473 1476 1479 1481 1483 1485 1486 1487 1487 1488
1387 1386 1385 1385 1383 1381 1382 1383 1382 1383 1382 1384 1385 1386 1390 1396 1399 1401 1407 1412 1416 1419 1424 1428 1432 1438 1444 1451 1456 1459 1462 1465 1468 1470 1471 1474 1476 1477 1479 1480 1480 1481 1482
1383 1382 1382 1379 1379 1380 1379 1377 1376 1375 1378 1379 1380 1382 1385 1392 1395 1398 1402 1408 1413 1416 1422 1427 1431 1439 1443 1448 1452 1455 1459 1462 1465 1467 1469 1469 1471 1471 1472 1474 1475 1477 1475
1377 1375 1375 1375 1374 1373 1372 1371 1370 1370 1373 1372 1374 1378 1383 1388 1389 1393 1397 1405 1409 1412 1419 1426 1431 1437 1442 1444 1449 1452 1454 1459 1462 1463 1466 1466 1468 1468 1468 1468 1469 1471 1473
1370 1368 1368 1367 1366 1366 1364 1363 1363 1362 1364 1366 1370 1373 1378 1384 1388 1390 1393 1401 1406 1409 1415 1422 1430 1435 1439 1441 1446 1449 1454 1455 1459 1459 1461 1463 1464 1465 1465 1464 1466 1464 1468
1362 1362 1361 1360 1358 1357 1356 1356 1356 1357 1359 1361 1366 1369 1373 1378 1384 1389 1393 1399 1403 1406 1411 1421 1427 1433 1437 1441 1440 1446 1451 1455 1455 1457 1457 1460 1462 1462 1463 1461 1461 1462 1464
1357 1356 1355 1353 1351 1349 1349 1348 1350 1352 1354 1356 1359 1363 1366 1373 1380 1387 1390 1396 1400 1405 1411 1420 1425 1430 1434 1439 1440 1444 1444 1451 1452 1453 1456 1458 1458 1460 1460 1458 1459 1458 1459
1350 1349 1348 1345 1344 1344 1343 1344 1345 1345 1348 1350 1353 1357 1365 1370 1373 1380 1388 1394 1400 1404 1411 1417 1424 1428 1433 1435 1437 1443 1442 1445 1450 1450 1455 1455 1455 1455 1454 1455 1455 1454 1452
1344 1342 1340 1339 1339 1339 1340 1341 1341 1342 1344 1346 1349 1353 1359 1366 1372 1378 1386 1391 1397 1403 1409 1413 1419 1426 1428 1433 1435 1437 1437 1442 1446 1449 1450 1452 1451 1451 1451 1451 1449 1448 1445
1339 1337 1336 1335 1335 1335 1336 1337 1339 1341 1343 1346 1351 1354 1358 1367 1374 1379 1387 1393 1398 1402 1407 1412 1414 1421 1428 1430 1433 1432 1434 1440 1443 1445 1446 1447 1447 1447 1446 1445 1443 1440 1436
1334 1333 1332 1332 1333 1333 1334 1337 1338 1342 1345 1348 1351 1356 1362 1368 1373 1380 1389 1394 1395 1400 1405 1408 1413 1421 1425 1425 1426 1429 1432 1436 1439 1440 1442 1442 1443 1442 1440 1438 1435 1432 1428
1331 1331 1330 1331 1332 1334 1336 1337 1339 1342 1345 1350 1356 1360 1365 1370 1376 1382 1386 1390 1394 1399 1404 1408 1412 1416 1419 1420 1423 1425 1429 1432 1435 1436 1438 1438 1436 1435 1433 1430 1427 1424 1421
1329 1329 1330 1330 1333 1336 1338 1339 1342 1345 1349 1353 1358 1363 1368 1373 1378 1382 1386 1390 1394 1398 1401 1405 1409 1412 1414 1417 1420 1424 1427 1429 1431 1432 1432 1431 1430 1427 1425 1422 1419 1417 1414
1327 1329 1330 1332 1334 1337 1339 1342 1345 1348 1352 1356 1360 1364 1368 1372 1376 1380 1385 1389 1393 1397 1400 1403 1406 1409 1412 1415 1418 1421 1424 1425 1425 1426 1426 1424 1422 1419 1416 1414 1412 1408 1406
1326 1328 1330 1332 1335 1338 1341 1343 1346 1350 1353 1357 1360 1365 1369 1372 1375 1380 1384 1388 1392 1395 1398 1401 1404 1407 1411 1413 1416 1418 1419 1419 1420 1419 1418 1415 1413 1410 1408 1405 1403 1400 1397
1325 1327 1329 1332 1335 1338 1341 1345 1348 1351 1355 1359 1362 1366 1370 1374 1377 1381 1384 1388 1391 1394 1397 1400 1403 1406 1409 1410 1412 1413 1413 1413 1413 1411 1409 1407 1405 1403 1400 1398 1395 1392 1389
1323 1326 1329 1332 1335 1339 1342 1345 1349 1352 1356 1359 1363 1366 1369 1372 1376 1380 1383 1387 1389 1392 1395 1399 1402 1404 1405 1406 1407 1407 1407 1407 1405 1403 1402 1400 1398 1395 1393 1390 1387 1384 1381
1322 1325 1328 1331 1335 1338 1342 1345 1349 1353 1356 1359 1362 1365 1368 1371 1375 1378 1382 1385 1388 1391 1394 1396 1398 1400 1400 1401 1402 1402 1401 1400 1398 1396 1394 1392 1390 1388 1385 1382 1380 1376 1373
1322 1325 1328 1331 1334 1338 1342 1345 1348 1351 1355 1358 1361 1364 1368 1371 1374 1377 1381 1384 1387 1389 1391 1393 1394 1395 1396 1397 1397 1396 1395 1393 1391 1389 1387 1385 1383 1380 1377 1374 1371 1368 1365
1321 1324 1328 1331 1334 1338 1341 1344 1347 1350 1353 1357 1360 1363 1366 1369 1372 1375 1378 1381 1383 1385 1387 1388 1389 1391 1391 1392 1391 1390 1388 1386 1384 1382 1380 1377 1375 1372 1369 1366 1363 1360 1357